Location: Partizánske
(48.6285°N, 18.3769°E)
Time: 14:07:50
(UTC+01:00)

ISS - Visible Passes

Search period start: 04 December 2021 00:00
Search period end: 14 December 2021 00:00
Orbit: 417 x 423 km, 51.6° (Epoch: 04 December)

Date Brightness Start Highest point End Pass type
(mag) Time Alt. Az. Time Alt. Az. Time Alt. Az.
04 Dec -3.6 16:24:19 10° WNW 16:27:41 57° NNE 16:31:02 10° E visible
04 Dec -2.9 18:01:13 10° WNW 18:04:30 46° SSW 18:04:59 42° S visible
05 Dec -3.4 17:13:44 10° WNW 17:17:07 67° SSW 17:19:59 14° SE visible
05 Dec -0.7 18:51:33 10° WSW 18:53:00 14° SW 18:53:00 14° SW visible
06 Dec -3.7 16:26:16 10° WNW 16:29:40 89° N 16:33:04 10° ESE visible
06 Dec -1.3 18:03:31 10° W 18:06:10 21° SW 18:08:13 13° S visible
07 Dec -1.9 17:15:46 10° W 17:18:48 31° SW 17:21:50 10° SSE visible
08 Dec -2.5 16:28:05 10° WNW 16:31:22 46° SSW 16:34:37 10° SE visible
09 Dec -0.6 17:18:15 10° WSW 17:20:08 14° SW 17:22:00 10° S visible
10 Dec -0.8 16:30:04 10° W 16:32:43 21° SW 16:35:21 10° SSE visible
